time, Switch, Flow(0), Analog(2)
yyyy/mm/dd HH:MM:SS.fff, True=FILTERED|False=TOTAL, L/min, V
2023/07/11 04:00:01.335, True, 4.643, 0.120089
2023/07/11 04:00:01.839, True, 4.642, 0.120089
2023/07/11 04:00:02.335, True, 4.717, 0.120241
2023/07/11 04:00:02.839, True, 4.642, 0.118868
2023/07/11 04:00:03.343, True, 4.643, 0.121157
2023/07/11 04:00:03.839, True, 4.044, 0.120928
2023/07/11 04:00:04.343, True, 3.647, 0.119860
2023/07/11 04:00:04.847, True, 3.648, 0.121309
2023/07/11 04:00:05.343, True, 3.706, 0.118410
2023/07/11 04:00:05.847, True, 3.648, 0.119936
2023/07/11 04:00:06.351, True, 3.316, 0.119631
2023/07/11 04:00:06.847, True, 3.706, 0.118486
2023/07/11 04:00:07.351, True, 3.316, 0.118105
2023/07/11 04:00:07.855, True, 3.316, 0.118563
2023/07/11 04:00:08.351, True, 3.707, 0.119020
2023/07/11 04:00:08.855, True, 3.316, 0.119097
2023/07/11 04:00:09.359, True, 3.315, 0.119707
2023/07/11 04:00:09.855, True, 3.707, 0.119554
2023/07/11 04:00:10.359, True, 3.316, 0.120012
2023/07/11 04:00:10.863, True, 3.317, 0.119783
2023/07/11 04:00:11.359, True, 3.708, 0.118639
2023/07/11 04:00:11.863, True, 3.318, 0.121080
2023/07/11 04:00:12.367, True, 3.312, 0.121614
2023/07/11 04:00:12.871, True, 3.321, 0.120470
2023/07/11 04:00:13.367, True, 3.706, 0.122759
2023/07/11 04:00:13.871, True, 3.643, 0.119020
2023/07/11 04:00:14.375, True, 3.315, 0.119554
2023/07/11 04:00:14.871, True, 3.706, 0.119554
2023/07/11 04:00:15.375, True, 3.317, 0.120699
2023/07/11 04:00:15.879, True, 3.315, 0.118868
2023/07/11 04:00:16.375, True, 3.706, 0.119707
2023/07/11 04:00:16.879, True, 3.648, 0.119402
2023/07/11 04:00:17.375, True, 3.369, 0.117494
2023/07/11 04:00:17.879, True, 3.648, 0.119097
2023/07/11 04:00:18.384, True, 3.317, 0.117037
2023/07/11 04:00:18.887, True, 3.648, 0.119173
2023/07/11 04:00:19.383, True, 3.368, 0.121080
2023/07/11 04:00:19.887, True, 3.650, 0.118715
2023/07/11 04:00:20.391, True, 3.648, 0.120775
2023/07/11 04:00:20.887, True, 3.368, 0.118029
2023/07/11 04:00:21.391, True, 3.648, 0.120241
2023/07/11 04:00:21.895, True, 3.647, 0.121004
2023/07/11 04:00:22.391, True, 3.370, 0.120012
2023/07/11 04:00:22.895, True, 3.317, 0.123064
2023/07/11 04:00:23.399, True, 3.647, 0.119936
2023/07/11 04:00:23.895, True, 3.706, 0.119173
2023/07/11 04:00:24.399, True, 3.316, 0.120928
2023/07/11 04:00:24.903, True, 3.648, 0.120241
2023/07/11 04:00:25.399, True, 3.372, 0.123293
2023/07/11 04:00:25.903, True, 3.645, 0.121767
2023/07/11 04:00:26.399, True, 3.372, 0.121614
2023/07/11 04:00:26.903, True, 3.314, 0.121920
2023/07/11 04:00:27.407, True, 3.652, 0.124895
2023/07/11 04:00:27.911, True, 3.643, 0.122225
2023/07/11 04:00:28.407, True, 3.706, 0.124666
2023/07/11 04:00:28.911, True, 3.317, 0.122683
2023/07/11 04:00:29.415, True, 3.648, 0.123903
2023/07/11 04:00:29.911, True, 3.706, 0.124895
2023/07/11 04:00:30.415, True, 3.655, 0.124971
2023/07/11 04:00:30.919, True, 3.641, 0.124819
2023/07/11 04:00:31.415, True, 3.370, 0.124819
2023/07/11 04:00:31.919, True, 3.646, 0.125582
2023/07/11 04:00:32.423, True, 3.649, 0.125048
2023/07/11 04:00:32.919, True, 3.370, 0.123598
2023/07/11 04:00:33.423, True, 3.646, 0.124437
2023/07/11 04:00:33.927, True, 3.318, 0.124208
2023/07/11 04:00:34.423, True, 3.708, 0.123980
2023/07/11 04:00:34.927, True, 3.315, 0.123598
2023/07/11 04:00:35.431, True, 3.651, 0.124971
2023/07/11 04:00:35.927, True, 3.703, 0.124971
2023/07/11 04:00:36.431, True, 3.317, 0.125200
2023/07/11 04:00:36.935, True, 3.645, 0.125429
2023/07/11 04:00:37.431, True, 3.371, 0.123369
2023/07/11 04:00:37.935, True, 3.314, 0.125582
2023/07/11 04:00:38.431, True, 3.706, 0.123064
2023/07/11 04:00:38.935, True, 3.320, 0.125429
2023/07/11 04:00:39.439, True, 3.314, 0.125963
2023/07/11 04:00:39.935, True, 3.704, 0.121767
2023/07/11 04:00:40.439, True, 3.317, 0.126268
2023/07/11 04:00:40.943, True, 3.315, 0.124895
2023/07/11 04:00:41.439, True, 3.707, 0.126802
2023/07/11 04:00:41.943, True, 3.319, 0.124361
2023/07/11 04:00:42.447, True, 3.643, 0.126802
2023/07/11 04:00:42.943, True, 3.707, 0.124819
2023/07/11 04:00:43.446, True, 3.319, 0.126268
2023/07/11 04:00:43.951, True, 3.645, 0.122988
2023/07/11 04:00:44.455, True, 3.647, 0.123903
2023/07/11 04:00:44.951, True, 3.369, 0.124666
2023/07/11 04:00:45.455, True, 3.647, 0.126192
2023/07/11 04:00:45.959, True, 3.319, 0.124666
2023/07/11 04:00:46.454, True, 3.366, 0.125811
2023/07/11 04:00:46.959, True, 3.318, 0.125811
2023/07/11 04:00:47.455, True, 3.710, 0.123522
2023/07/11 04:00:47.959, True, 3.315, 0.124285
2023/07/11 04:00:48.463, True, 3.645, 0.122606
2023/07/11 04:00:48.959, True, 3.709, 0.125200
2023/07/11 04:00:49.463, True, 3.315, 0.124743
2023/07/11 04:00:49.967, True, 3.647, 0.124514
2023/07/11 04:00:50.463, True, 3.369, 0.124971
2023/07/11 04:00:50.967, True, 3.650, 0.124208
2023/07/11 04:00:51.471, True, 3.318, 0.125048
2023/07/11 04:00:51.967, True, 3.365, 0.124132
2023/07/11 04:00:52.471, True, 2.986, 0.126192
2023/07/11 04:00:52.967, True, 3.370, 0.125429
2023/07/11 04:00:53.471, True, 3.314, 0.125200
2023/07/11 04:00:53.975, True, 2.987, 0.125124
2023/07/11 04:00:54.471, True, 3.368, 0.125200
2023/07/11 04:00:54.975, True, 3.317, 0.124514
2023/07/11 04:00:55.479, True, 3.314, 0.124437
2023/07/11 04:00:55.975, True, 3.707, 0.122759
2023/07/11 04:00:56.479, True, 3.319, 0.123293
2023/07/11 04:00:56.983, True, 3.650, 0.125353
2023/07/11 04:00:57.487, True, 3.641, 0.125887
2023/07/11 04:00:57.983, True, 3.032, 0.125200
2023/07/11 04:00:58.487, True, 3.320, 0.122988
2023/07/11 04:00:58.991, True, 3.313, 0.121462
2023/07/11 04:00:59.487, True, 3.368, 0.123064
2023/07/11 04:00:59.991, True, 3.647, 0.125429
2023/07/11 04:01:00.487, True, 3.375, 0.124895
2023/07/11 04:01:00.991, True, 3.311, 0.125505
2023/07/11 04:01:01.495, True, 3.316, 0.124590
2023/07/11 04:01:01.991, True, 3.369, 0.125582
2023/07/11 04:01:02.495, True, 3.316, 0.122225
2023/07/11 04:01:02.999, True, 2.984, 0.122301
2023/07/11 04:01:03.495, True, 3.708, 0.124208
2023/07/11 04:01:03.999, True, 3.314, 0.123827
2023/07/11 04:01:04.495, True, 3.369, 0.123827
2023/07/11 04:01:04.999, True, 3.316, 0.124743
2023/07/11 04:01:05.503, True, 3.316, 0.122377
2023/07/11 04:01:06.007, True, 3.316, 0.124437
2023/07/11 04:01:06.503, True, 3.370, 0.124437
2023/07/11 04:01:07.007, True, 3.316, 0.121691
2023/07/11 04:01:07.512, True, 3.648, 0.122911
2023/07/11 04:01:08.007, True, 3.370, 0.123445
2023/07/11 04:01:08.511, True, 3.316, 0.125811
2023/07/11 04:01:09.015, True, 3.646, 0.124208
2023/07/11 04:01:09.512, True, 3.370, 0.123827
2023/07/11 04:01:10.015, True, 3.647, 0.123598
2023/07/11 04:01:10.519, True, 3.648, 0.123217
2023/07/11 04:01:11.015, True, 3.369, 0.123293
2023/07/11 04:01:11.519, True, 3.654, 0.121309
2023/07/11 04:01:12.023, True, 3.310, 0.123903
2023/07/11 04:01:12.519, True, 3.370, 0.124056
2023/07/11 04:01:13.023, True, 3.316, 0.121691
2023/07/11 04:01:13.527, True, 3.647, 0.123522
2023/07/11 04:01:14.024, True, 3.713, 0.121614
2023/07/11 04:01:14.527, True, 3.312, 0.122225
2023/07/11 04:01:15.031, True, 3.647, 0.123827
2023/07/11 04:01:15.527, True, 3.369, 0.123293
2023/07/11 04:01:16.031, True, 3.648, 0.124361
2023/07/11 04:01:16.536, True, 3.648, 0.123980
2023/07/11 04:01:17.031, True, 3.369, 0.120317
2023/07/11 04:01:17.535, True, 3.648, 0.123369
2023/07/11 04:01:18.031, True, 3.368, 0.122148
2023/07/11 04:01:18.535, True, 3.317, 0.122530
2023/07/11 04:01:19.039, True, 3.648, 0.122683
2023/07/11 04:01:19.535, True, 3.374, 0.123293
2023/07/11 04:01:20.040, True, 3.642, 0.120851
2023/07/11 04:01:20.543, True, 3.648, 0.125048
2023/07/11 04:01:21.040, True, 3.370, 0.122225
2023/07/11 04:01:21.543, True, 3.316, 0.125200
2023/07/11 04:01:22.048, True, 3.649, 0.123140
2023/07/11 04:01:22.543, True, 3.369, 0.122759
2023/07/11 04:01:23.047, True, 3.648, 0.122759
2023/07/11 04:01:23.551, True, 3.318, 0.122301
2023/07/11 04:01:24.048, True, 3.704, 0.122377
2023/07/11 04:01:24.551, True, 3.316, 0.121767
2023/07/11 04:01:25.056, True, 3.648, 0.123522
2023/07/11 04:01:25.552, True, 3.369, 0.127184
2023/07/11 04:01:26.055, True, 3.647, 0.124056
2023/07/11 04:01:26.559, True, 3.649, 0.123751
2023/07/11 04:01:27.055, True, 3.706, 0.122148
2023/07/11 04:01:27.559, True, 3.317, 0.123598
2023/07/11 04:01:28.063, True, 3.650, 0.123064
2023/07/11 04:01:28.568, True, 3.644, 0.122148
2023/07/11 04:01:29.064, True, 3.706, 0.122530
2023/07/11 04:01:29.568, True, 3.315, 0.121614
2023/07/11 04:01:30.071, True, 3.648, 0.122759
2023/07/11 04:01:30.576, True, 3.648, 0.120775
2023/07/11 04:01:31.071, True, 3.368, 0.122377
2023/07/11 04:01:31.576, True, 3.648, 0.122377
2023/07/11 04:01:32.071, True, 3.706, 0.123217
2023/07/11 04:01:32.575, True, 3.648, 0.122606
2023/07/11 04:01:33.079, True, 3.317, 0.122759
2023/07/11 04:01:33.576, True, 3.706, 0.122454
2023/07/11 04:01:34.079, True, 3.316, 0.123445
2023/07/11 04:01:34.583, True, 3.316, 0.122759
2023/07/11 04:01:35.080, True, 3.369, 0.122606
2023/07/11 04:01:35.584, True, 3.647, 0.122377
2023/07/11 04:01:36.087, True, 3.317, 0.122072
2023/07/11 04:01:36.592, True, 3.647, 0.122835
2023/07/11 04:01:37.087, True, 3.376, 0.122911
2023/07/11 04:01:37.591, True, 3.641, 0.121309
2023/07/11 04:01:38.088, True, 3.706, 0.122911
2023/07/11 04:01:38.592, True, 3.317, 0.119783
2023/07/11 04:01:39.096, True, 3.647, 0.124208
2023/07/11 04:01:39.592, True, 3.369, 0.124437
2023/07/11 04:01:40.095, True, 3.649, 0.122301
2023/07/11 04:01:40.599, True, 3.315, 0.120928
2023/07/11 04:01:41.096, True, 3.370, 0.122759
2023/07/11 04:01:41.599, True, 3.316, 0.123445
2023/07/11 04:01:42.096, True, 3.706, 0.124056
2023/07/11 04:01:42.599, True, 3.317, 0.121843
2023/07/11 04:01:43.103, True, 3.315, 0.120470
2023/07/11 04:01:43.607, True, 3.649, 0.122072
2023/07/11 04:01:44.103, True, 3.372, 0.121843
2023/07/11 04:01:44.607, True, 3.644, 0.123064
2023/07/11 04:01:45.112, True, 3.316, 0.123064
2023/07/11 04:01:45.607, True, 3.370, 0.123140
2023/07/11 04:01:46.111, True, 3.316, 0.120470
2023/07/11 04:01:46.607, True, 3.709, 0.121386
2023/07/11 04:01:47.111, True, 3.315, 0.123369
2023/07/11 04:01:47.615, True, 3.315, 0.121538
2023/07/11 04:01:48.112, True, 3.706, 0.122148
2023/07/11 04:01:48.615, True, 3.648, 0.120623
2023/07/11 04:01:49.119, True, 3.647, 0.123140
2023/07/11 04:01:49.615, True, 3.374, 0.121004
2023/07/11 04:01:50.119, True, 3.642, 0.122530
2023/07/11 04:01:50.623, True, 3.321, 0.121996
2023/07/11 04:01:51.119, True, 3.703, 0.120928
2023/07/11 04:01:51.623, True, 3.314, 0.123598
2023/07/11 04:01:52.128, True, 3.648, 0.121996
2023/07/11 04:01:52.623, True, 3.370, 0.122148
2023/07/11 04:01:53.128, True, 3.648, 0.124208
2023/07/11 04:01:53.631, True, 3.650, 0.121843
2023/07/11 04:01:54.127, True, 3.368, 0.121920
2023/07/11 04:01:54.631, True, 3.649, 0.121691
2023/07/11 04:01:55.135, True, 3.646, 0.123674
2023/07/11 04:01:55.631, True, 3.709, 0.121080
2023/07/11 04:01:56.135, True, 3.314, 0.123369
2023/07/11 04:01:56.640, True, 3.317, 0.120317
2023/07/11 04:01:57.136, True, 3.706, 0.123064
2023/07/11 04:01:57.639, True, 3.647, 0.121157
2023/07/11 04:01:58.143, True, 3.652, 0.121233
2023/07/11 04:01:58.639, True, 3.365, 0.122377
2023/07/11 04:01:59.143, True, 3.316, 0.120775
2023/07/11 04:01:59.648, True, 3.649, 0.119631
2023/07/11 04:02:00.151, True, 3.646, 0.120089
2023/07/11 04:02:00.648, True, 3.371, 0.121920
2023/07/11 04:02:01.152, True, 3.645, 0.119249
2023/07/11 04:02:01.655, True, 3.317, 0.123369
2023/07/11 04:02:02.151, True, 3.707, 0.120851
2023/07/11 04:02:02.655, True, 3.647, 0.121843
2023/07/11 04:02:03.160, True, 3.316, 0.122072
2023/07/11 04:02:03.655, True, 3.707, 0.119097
2023/07/11 04:02:04.159, True, 3.317, 0.121386
2023/07/11 04:02:04.664, True, 3.654, 0.123445
2023/07/11 04:02:05.160, True, 3.363, 0.120546
2023/07/11 04:02:05.663, True, 3.648, 0.119707
2023/07/11 04:02:06.167, True, 3.317, 0.120089
2023/07/11 04:02:06.663, True, 3.369, 0.118257
2023/07/11 04:02:07.167, True, 3.649, 0.120851
2023/07/11 04:02:07.671, True, 3.647, 0.118181
2023/07/11 04:02:08.167, True, 3.369, 0.121157
2023/07/11 04:02:08.671, True, 3.316, 0.121309
2023/07/11 04:02:09.175, True, 3.650, 0.121004
2023/07/11 04:02:09.671, True, 3.704, 0.120851
2023/07/11 04:02:10.175, True, 3.647, 0.119936
2023/07/11 04:02:10.679, True, 3.316, 0.120165
2023/07/11 04:02:11.175, True, 3.706, 0.122148
2023/07/11 04:02:11.679, True, 3.648, 0.120775
2023/07/11 04:02:12.183, True, 3.316, 0.121233
2023/07/11 04:02:12.680, True, 3.707, 0.122225
2023/07/11 04:02:13.183, True, 3.316, 0.121462
2023/07/11 04:02:13.679, True, 3.706, 0.121691
2023/07/11 04:02:14.183, True, 3.316, 0.123217
2023/07/11 04:02:14.688, True, 3.323, 0.122301
2023/07/11 04:02:15.184, True, 3.698, 0.122988
2023/07/11 04:02:15.687, True, 3.317, 0.120241
2023/07/11 04:02:16.191, True, 3.646, 0.122911
2023/07/11 04:02:16.687, True, 3.370, 0.122377
2023/07/11 04:02:17.192, True, 3.648, 0.122072
2023/07/11 04:02:17.695, True, 3.647, 0.120241
2023/07/11 04:02:18.199, True, 3.648, 0.120775
2023/07/11 04:02:18.695, True, 3.369, 0.122148
2023/07/11 04:02:19.199, True, 3.648, 0.122377
2023/07/11 04:02:19.703, True, 3.320, 0.119936
2023/07/11 04:02:20.199, True, 3.702, 0.120775
2023/07/11 04:02:20.703, True, 3.652, 0.120623
2023/07/11 04:02:21.206, True, 3.312, 0.121233
2023/07/11 04:02:21.703, True, 3.706, 0.120623
2023/07/11 04:02:22.207, True, 3.317, 0.121004
2023/07/11 04:02:22.711, True, 3.655, 0.119707
2023/07/11 04:02:23.207, True, 3.363, 0.121004
2023/07/11 04:02:23.711, True, 3.316, 0.118791
2023/07/11 04:02:24.216, True, 3.648, 0.121462
2023/07/11 04:02:24.719, True, 3.315, 0.120928
2023/07/11 04:02:25.215, True, 3.708, 0.121233
2023/07/11 04:02:25.720, True, 3.653, 0.118486
2023/07/11 04:02:26.224, True, 3.642, 0.121233
2023/07/11 04:02:26.727, True, 3.319, 0.120775
2023/07/11 04:02:27.222, True, 3.708, 0.121462
2023/07/11 04:02:27.728, True, 3.648, 0.117876
2023/07/11 04:02:28.232, True, 3.648, 0.121157
2023/07/11 04:02:28.727, True, 3.363, 0.123140
2023/07/11 04:02:29.231, True, 3.323, 0.119936
2023/07/11 04:02:29.736, True, 3.642, 0.120012
2023/07/11 04:02:30.232, True, 3.372, 0.119860
2023/07/11 04:02:30.736, True, 3.313, 0.121996
2023/07/11 04:02:31.239, True, 3.648, 0.121080
2023/07/11 04:02:31.735, True, 3.370, 0.119097
2023/07/11 04:02:32.239, True, 3.653, 0.122225
2023/07/11 04:02:32.743, True, 3.310, 0.120623
2023/07/11 04:02:33.239, True, 3.709, 0.121309
2023/07/11 04:02:33.743, True, 3.314, 0.118791
2023/07/11 04:02:34.247, True, 3.648, 0.123598
2023/07/11 04:02:34.743, True, 3.710, 0.120546
2023/07/11 04:02:35.247, True, 3.313, 0.121080
2023/07/11 04:02:35.752, True, 3.321, 0.120394
2023/07/11 04:02:36.248, True, 3.702, 0.123064
2023/07/11 04:02:36.752, True, 3.317, 0.120775
2023/07/11 04:02:37.255, True, 3.647, 0.119097
2023/07/11 04:02:37.752, True, 3.713, 0.121843
2023/07/11 04:02:38.256, True, 3.642, 0.120394
2023/07/11 04:02:38.760, True, 3.316, 0.120928
2023/07/11 04:02:39.263, True, 3.647, 0.121996
2023/07/11 04:02:39.760, True, 3.709, 0.121233
2023/07/11 04:02:40.264, True, 3.645, 0.120012
2023/07/11 04:02:40.767, True, 3.649, 0.120546
2023/07/11 04:02:41.264, True, 3.368, 0.120089
2023/07/11 04:02:41.768, True, 3.647, 0.120546
2023/07/11 04:02:42.271, True, 3.648, 0.120012
2023/07/11 04:02:42.768, True, 3.707, 0.121233
2023/07/11 04:02:43.271, True, 3.647, 0.120012
2023/07/11 04:02:43.767, True, 3.371, 0.118715
2023/07/11 04:02:44.272, True, 3.653, 0.119173
2023/07/11 04:02:44.775, True, 3.641, 0.120546
2023/07/11 04:02:45.279, True, 3.316, 0.119249
2023/07/11 04:02:45.775, True, 3.707, 0.120012
2023/07/11 04:02:46.279, True, 3.316, 0.121691
2023/07/11 04:02:46.775, True, 3.371, 0.124437
2023/07/11 04:02:47.279, True, 3.316, 0.120241
2023/07/11 04:02:47.783, True, 3.314, 0.118257
2023/07/11 04:02:48.287, True, 3.318, 0.121309
2023/07/11 04:02:48.784, True, 3.370, 0.119097
2023/07/11 04:02:49.287, True, 3.646, 0.120165
2023/07/11 04:02:49.791, True, 3.317, 0.122072
2023/07/11 04:02:50.288, True, 3.369, 0.120775
2023/07/11 04:02:50.791, True, 3.647, 0.120012
2023/07/11 04:02:51.288, True, 3.375, 0.119707
2023/07/11 04:02:51.792, True, 3.311, 0.118944
2023/07/11 04:02:52.295, True, 3.316, 0.120775
2023/07/11 04:02:52.799, True, 3.651, 0.121843
2023/07/11 04:02:53.296, True, 3.366, 0.120775
2023/07/11 04:02:53.799, True, 3.647, 0.120012
2023/07/11 04:02:54.303, True, 3.652, 0.120775
2023/07/11 04:02:54.800, True, 3.365, 0.122301
2023/07/11 04:02:55.304, True, 3.648, 0.117266
2023/07/11 04:02:55.799, True, 3.370, 0.122377
2023/07/11 04:02:56.304, True, 3.648, 0.120394
2023/07/11 04:02:56.807, True, 3.647, 0.120470
2023/07/11 04:02:57.311, True, 3.653, 0.119707
2023/07/11 04:02:57.807, True, 3.704, 0.117723
2023/07/11 04:02:58.311, True, 3.313, 0.120699
2023/07/11 04:02:58.816, True, 3.654, 0.120089
2023/07/11 04:02:59.311, True, 3.700, 0.122606
2023/07/11 04:02:59.815, True, 3.648, 0.120470
2023/07/11 04:03:00.311, True, 3.706, 0.122072
2023/07/11 04:03:00.815, True, 3.316, 0.121691
2023/07/11 04:03:01.320, True, 3.648, 0.120394
2023/07/11 04:03:01.815, True, 3.707, 0.120623
2023/07/11 04:03:02.320, True, 3.317, 0.116808
2023/07/11 04:03:02.823, True, 3.646, 0.119860
2023/07/11 04:03:03.328, True, 3.648, 0.120012
2023/07/11 04:03:03.824, True, 3.369, 0.119478
2023/07/11 04:03:04.328, True, 3.648, 0.120928
2023/07/11 04:03:04.831, True, 3.648, 0.119783
2023/07/11 04:03:05.328, True, 3.370, 0.119173
2023/07/11 04:03:05.832, True, 3.315, 0.120699
2023/07/11 04:03:06.328, True, 3.370, 0.119554
2023/07/11 04:03:06.831, True, 3.649, 0.118563
2023/07/11 04:03:07.335, True, 3.647, 0.120012
2023/07/11 04:03:07.840, True, 3.315, 0.119249
2023/07/11 04:03:08.335, True, 3.369, 0.121004
2023/07/11 04:03:08.840, True, 3.648, 0.118563
2023/07/11 04:03:09.336, True, 3.707, 0.120165
2023/07/11 04:03:09.840, True, 3.647, 0.120546
2023/07/11 04:03:10.344, True, 3.647, 0.120928
2023/07/11 04:03:10.848, True, 3.648, 0.119783
2023/07/11 04:03:11.343, True, 3.712, 0.119020
2023/07/11 04:03:11.847, True, 3.643, 0.119173
2023/07/11 04:03:12.352, True, 3.316, 0.119936
2023/07/11 04:03:12.847, True, 3.706, 0.120165
2023/07/11 04:03:13.352, True, 3.648, 0.120928
2023/07/11 04:03:13.855, True, 3.648, 0.119554
2023/07/11 04:03:14.352, True, 3.370, 0.119860
2023/07/11 04:03:14.855, True, 3.648, 0.119173
2023/07/11 04:03:15.359, True, 3.314, 0.119554
2023/07/11 04:03:15.855, True, 3.707, 0.122454
2023/07/11 04:03:16.359, True, 3.316, 0.118029
2023/07/11 04:03:16.863, True, 3.647, 0.119554
2023/07/11 04:03:17.367, True, 3.648, 0.121080
2023/07/11 04:03:17.863, True, 3.372, 0.119326
2023/07/11 04:03:18.367, True, 3.644, 0.121080
2023/07/11 04:03:18.872, True, 3.316, 0.118486
2023/07/11 04:03:19.367, True, 3.370, 0.120165
2023/07/11 04:03:19.871, True, 3.648, 0.120012
2023/07/11 04:03:20.376, True, 3.315, 0.119554
2023/07/11 04:03:20.871, True, 3.370, 0.121004
2023/07/11 04:03:21.376, True, 3.647, 0.120928
2023/07/11 04:03:21.879, True, 3.648, 0.120089
2023/07/11 04:03:22.376, True, 3.371, 0.121080
2023/07/11 04:03:22.879, True, 3.315, 0.121004
2023/07/11 04:03:23.384, True, 3.651, 0.119936
2023/07/11 04:03:23.879, True, 3.366, 0.119173
2023/07/11 04:03:24.383, True, 3.316, 0.118868
2023/07/11 04:03:24.888, True, 3.656, 0.118334
2023/07/11 04:03:25.384, True, 3.698, 0.120394
2023/07/11 04:03:25.888, True, 3.317, 0.120089
2023/07/11 04:03:26.392, True, 3.316, 0.119097
2023/07/11 04:03:26.887, True, 3.705, 0.119402
2023/07/11 04:03:27.392, True, 3.316, 0.120775
2023/07/11 04:03:27.887, True, 3.707, 0.121004
2023/07/11 04:03:28.391, True, 3.316, 0.118791
2023/07/11 04:03:28.895, True, 3.647, 0.118944
2023/07/11 04:03:29.391, True, 3.370, 0.119173
2023/07/11 04:03:29.895, True, 3.316, 0.118944
2023/07/11 04:03:30.399, True, 3.317, 0.120928
2023/07/11 04:03:30.896, True, 3.369, 0.119097
2023/07/11 04:03:31.399, True, 3.316, 0.120623
2023/07/11 04:03:31.903, True, 3.654, 0.119249
2023/07/11 04:03:32.399, True, 3.364, 0.121004
2023/07/11 04:03:32.903, True, 3.648, 0.120470
2023/07/11 04:03:33.408, True, 3.315, 0.119707
2023/07/11 04:03:33.904, True, 3.370, 0.117800
2023/07/11 04:03:34.407, True, 3.648, 0.121233
2023/07/11 04:03:34.912, True, 3.648, 0.119554
2023/07/11 04:03:35.415, True, 3.316, 0.118029
2023/07/11 04:03:35.912, True, 3.706, 0.120775
2023/07/11 04:03:36.416, True, 3.316, 0.119631
2023/07/11 04:03:36.919, True, 3.648, 0.120470
2023/07/11 04:03:37.415, True, 3.369, 0.118029
2023/07/11 04:03:37.920, True, 3.648, 0.120089
2023/07/11 04:03:38.424, True, 3.317, 0.120623
2023/07/11 04:03:38.928, True, 3.652, 0.120394
2023/07/11 04:03:39.424, True, 3.365, 0.117800
2023/07/11 04:03:39.927, True, 3.647, 0.120699
2023/07/11 04:03:40.432, True, 3.323, 0.120928
2023/07/11 04:03:40.927, True, 3.367, 0.118639
2023/07/11 04:03:41.431, True, 3.643, 0.118791
2023/07/11 04:03:41.936, True, 3.647, 0.121767
2023/07/11 04:03:42.431, True, 3.369, 0.118868
2023/07/11 04:03:42.935, True, 3.647, 0.119249
2023/07/11 04:03:43.440, True, 3.648, 0.119936
2023/07/11 04:03:43.935, True, 3.370, 0.119860
2023/07/11 04:03:44.439, True, 3.650, 0.121004
2023/07/11 04:03:44.943, True, 3.646, 0.120089
2023/07/11 04:03:45.439, True, 3.370, 0.119783
2023/07/11 04:03:45.944, True, 3.655, 0.120317
2023/07/11 04:03:46.447, True, 3.639, 0.119249
2023/07/11 04:03:46.943, True, 3.370, 0.119554
2023/07/11 04:03:47.447, True, 3.647, 0.118410
2023/07/11 04:03:47.944, True, 3.707, 0.120012
2023/07/11 04:03:48.447, True, 3.319, 0.118486
2023/07/11 04:03:48.951, True, 3.644, 0.119020
2023/07/11 04:03:49.455, True, 3.655, 0.120470
2023/07/11 04:03:49.951, True, 3.705, 0.119478
2023/07/11 04:03:50.456, True, 3.642, 0.119707
2023/07/11 04:03:50.960, True, 3.322, 0.121004
2023/07/11 04:03:51.463, True, 3.646, 0.120241
2023/07/11 04:03:51.960, True, 3.366, 0.119936
2023/07/11 04:03:52.463, True, 3.323, 0.119402
2023/07/11 04:03:52.968, True, 3.647, 0.119860
2023/07/11 04:03:53.463, True, 3.363, 0.119783
2023/07/11 04:03:53.968, True, 3.654, 0.119478
2023/07/11 04:03:54.472, True, 3.646, 0.118029
2023/07/11 04:03:54.976, True, 3.644, 0.121233
2023/07/11 04:03:55.471, True, 3.368, 0.122454
2023/07/11 04:03:55.975, True, 3.648, 0.121309
2023/07/11 04:03:56.479, True, 3.319, 0.119020
2023/07/11 04:03:56.976, True, 3.710, 0.116121
2023/07/11 04:03:57.479, True, 3.641, 0.118181
2023/07/11 04:03:57.984, True, 3.648, 0.117952
2023/07/11 04:03:58.480, True, 3.709, 0.121233
2023/07/11 04:03:58.984, True, 3.314, 0.119249
2023/07/11 04:03:59.488, True, 3.649, 0.117800
2023/07/11 04:03:59.984, True, 3.368, 0.121614
2023/07/11 04:04:00.488, True, 3.648, 0.119783
2023/07/11 04:04:00.992, True, 3.648, 0.119936
2023/07/11 04:04:01.488, True, 3.706, 0.119860
2023/07/11 04:04:01.991, True, 3.323, 0.120012
2023/07/11 04:04:02.496, True, 3.640, 0.120623
2023/07/11 04:04:02.992, True, 3.371, 0.119249
2023/07/11 04:04:03.496, True, 3.646, 0.120241
2023/07/11 04:04:03.000, True, 3.651, 0.118181
2023/07/11 04:04:04.496, True, 3.366, 0.121614
2023/07/11 04:04:04.000, True, 3.651, 0.120012
2023/07/11 04:04:05.504, True, 3.313, 0.117952
2023/07/11 04:04:05.000, True, 3.707, 0.120089
2023/07/11 04:04:06.504, True, 3.315, 0.121233
2023/07/11 04:04:07.008, True, 3.648, 0.120546
2023/07/11 04:04:07.504, True, 3.373, 0.119936
2023/07/11 04:04:08.008, True, 3.644, 0.119402
2023/07/11 04:04:08.512, True, 3.317, 0.120623
2023/07/11 04:04:09.007, True, 3.369, 0.119478
2023/07/11 04:04:09.512, True, 3.652, 0.120546
2023/07/11 04:04:10.016, True, 3.643, 0.119097
2023/07/11 04:04:10.512, True, 3.370, 0.120470